Location: Musselshell
(46.5176°N, 108.0911°W)
Time: 01:10:16
(UTC+00:00)

VELOX 1 - Pass Details

Date: 30 June 2022
Orbit: 623 x 639 km, 98.4° (Epoch: 17 August)

Event Time Altitude Azimuth Distance (km) Brightness Sun altitude
Rises 10:32:19 0° 129° (SE) 2,922 ? -7.4°
Reaches altitude 10° 10:34:51 10° 115° (ESE) 2,021 ? -7.1°
Maximum altitude 10:38:18 23° 63° (ENE) 1,360 ? -6.7°
Drops below altitude 10° 10:41:46 10° 12° (NNE) 2,040 ? -6.3°
Sets 10:44:20 0° 358° (N) 2,956 ? -5.9°
